www.pogodaiklimat.ru

Погода и климат >> Архив погоды >> Финляндия >> Хаммарланд


ПОГОДА на Хаммарланде

  • Прогноз погоды на Хаммарланде
  • Монитор погоды на Хаммарланде

АРХИВ ПОГОДЫ на Хаммарланде

Время (UTC), дата Ветер
(напр.,м/с)
 
Видим.   Явления Облачность Т
(С)
Тd
(С)
f
(%)
Тe
(С)
Тes
(С)
Комфортность P
(гПа)
Po
(гПа)
Тmin
(С)
Tmax
(С)
R
(мм)
R24
(мм)
S
(см)
13 15.09 З 10-16
{16}
н/о н/о +14.5 +6.5 59 +12 +12 991.4 989.6
14 15.09 З 9-14
{14}
н/о н/о +14.8 +7.2 60 +13 +13 991.3 989.6
15 15.09 З 12-15
{15}
н/о н/о +15.0 +6.2 56 +12 +12 991.2 989.4
16 15.09 З 12 н/о н/о +14.7 +6.7 59 +12 +12 991.4 989.7
17 15.09 З 10-13
{13}
н/о н/о +14.4 +7.1 62 +12 +12 991.7 989.9
18 15.09 З 9-11
{13}
н/о н/о +14.2 +6.5 60 +12 +12 991.8 990.0 +12.3 +15.0
19 15.09 З 9 н/о н/о +13.9 +7.5 65 +11 +11 991.4 989.7
20 15.09 З 10 н/о н/о +13.4 +7.5 67 +10 +10 991.4 989.6
21 15.09 З 14-17
{17}
н/о н/о +12.9 +7.7 71 +9 +9 990.4 988.6
22 15.09 З 14-18
{19}
н/о н/о +13.0 +8.0 72 +9 +9 990.5 988.8
23 15.09 З 13 н/о н/о +12.6 +7.7 72 +9 +9 990.9 989.2
00 16.09 З 12-15
{15}
н/о н/о +13.0 +7.9 71 +10 +10 991.4 989.6
01 16.09 З 11-15
{15}
н/о н/о +12.6 +7.9 73 +9 +9 991.7 989.9
02 16.09 З 11 н/о н/о +12.2 +7.9 75 +8 +8 992.0 990.2
03 16.09 З 10-14
{18}
н/о н/о +11.6 +7.7 77 +8 +8 992.5 990.7
04 16.09 З 15 н/о н/о +11.9 +7.9 76 +7 +7 992.6 990.8
05 16.09 СЗ 14 н/о н/о +11.0 +7.7 80 +6 +6 993.2 991.4
06 16.09 СЗ 14-17
{18}
н/о н/о +11.7 +7.7 76 +7 +7 993.6 991.8 +10.1 +14.2
07 16.09 СЗ 13 н/о н/о +11.6 +8.2 80 +7 +7 994.3 992.5
08 16.09 СЗ 12-15
{17}
н/о н/о +11.6 +8.3 80 +7 +7 995.1 993.3
09 16.09 СЗ 12-15
{15}
н/о н/о +11.7 +8.3 80 +8 +8 996.1 994.3
10 16.09 СЗ 12-14
{15}
н/о н/о +10.7 +8.3 85 +6 +6 996.8 995.0
11 16.09 СЗ 11 н/о н/о +11.4 +8.0 80 +7 +7 997.5 995.7
12 16.09 СЗ 12-14
{14}
н/о н/о +11.5 +6.8 73 +7 +7 998.2 996.4
13 16.09 СЗ 12 н/о н/о +11.3 +6.5 72 +7 +7 998.8 997.0
14 16.09 СЗ 11 н/о н/о +11.5 +6.8 73 +8 +8 999.3 997.5
15 16.09 СЗ 10-12
{13}
н/о н/о +11.6 +7.0 73 +8 +8 999.6 997.8
16 16.09 СЗ 9 н/о н/о +11.6 +6.8 72 +8 +8 999.7 997.9
17 16.09 СЗ 7 н/о н/о +11.5 +7.9 79 +8 +8 1000.0 998.2
18 16.09 СЗ 8-9
{12}
н/о н/о +11.3 +7.9 80 +8 +8 999.9 998.1 +10.4 +12.0
19 16.09 СЗ 11-12
{13}
н/о н/о +10.7 +8.4 86 +6 +6 999.8 998.0
20 16.09 СЗ 8-11
{11}
н/о н/о +11.0 +7.3 78 +7 +7 1000.0 998.1
21 16.09 СЗ 10-12
{13}
н/о н/о +11.4 +7.8 79 +8 +8 999.7 997.9
22 16.09 СЗ 13 н/о н/о +10.2 +7.3 82 +5 +5 999.5 997.7
23 16.09 СЗ 13-16
{16}
н/о н/о +11.3 +6.1 70 +7 +7 999.1 997.3
00 17.09 СЗ 11-13
{15}
н/о н/о +11.5 +5.5 67 +8 +8 999.0 997.2
01 17.09 СЗ 10-12
{13}
н/о н/о +11.4 +4.6 63 +8 +8 998.9 997.1
02 17.09 СЗ 9-11
{12}
н/о н/о +10.8 +7.8 82 +7 +7 999.0 997.2
03 17.09 СЗ 8 н/о н/о +11.2 +5.2 67 +8 +8 998.7 996.9
04 17.09 СЗ 8 н/о н/о +10.6 +6.5 76 +7 +7 998.5 996.7
05 17.09 СЗ 7 н/о н/о +10.7 +7.1 78 +7 +7 998.3 996.5
06 17.09 СЗ 6-8
{9}
н/о н/о +10.5 +4.9 68 +7 +7 998.1 996.3 +10.2 +11.7
07 17.09 СЗ 7-8
{8}
н/о н/о +10.8 +5.5 70 +7 +7 998.1 996.3
08 17.09 СЗ 7-8
{9}
н/о н/о +10.8 +5.8 71 +7 +7 998.2 996.4
09 17.09 СЗ 8-9
{10}
н/о н/о +11.0 +5.9 71 +7 +7 998.1 996.3
10 17.09 СЗ 9-11
{11}
н/о н/о +11.2 +6.1 71 +8 +8 998.2 996.4
11 17.09 СЗ 10 н/о н/о +11.1 +5.7 69 +7 +7 998.2 996.4
12 17.09 С 12-17
{17}
н/о н/о +10.4 +5.6 72 +6 +6 998.4 996.5
13 17.09 СЗ 10 н/о н/о +10.5 +7.4 81 +6 +6 998.6 996.8
14 17.09 С 8 н/о н/о +9.8 +7.4 85 +6 +6 999.4 997.5
15 17.09 СЗ 9-12
{12}
н/о н/о +10.1 +5.3 72 +6 +6 999.6 997.8
16 17.09 СВ 7 н/о н/о +10.8 +5.1 68 +8 +8 1000.0 998.2
17 17.09 -15
{15}
н/о н/о +10.9 +6.6 75 1000.0 998.2
18 17.09 С 13-15
{16}
н/о н/о +11.4 +5.3 66 +7 +7 1000.3 998.5 +8.9 +11.7
19 17.09 С 11 н/о н/о +11.0 +6.6 74 +7 +7 1000.6 998.8
20 17.09 С 12 н/о н/о +11.8 +4.5 61 +8 +8 1000.8 999.0
21 17.09 С 13-15
{16}
н/о н/о +11.8 +6.0 68 +8 +8 1001.1 999.3
22 17.09 СЗ 14 н/о н/о +10.6 +6.6 76 +6 +6 1001.4 999.6
23 17.09 СЗ 14 н/о н/о +10.2 +9.0 92 +5 +5 1001.8 1000.0
00 18.09 С 13-20
{20}
н/о н/о +10.2 +7.3 82 +5 +5 1002.5 1000.7
01 18.09 С 13-14
{23}
н/о н/о +11.1 +7.2 77 +7 +7 1002.4 1000.5
02 18.09 С 16-17
{19}
н/о н/о +10.6 +6.9 78 +5 +5 1002.8 1000.9
03 18.09 -18
{18}
н/о н/о +11.3 +7.7 78 1003.0 1001.2
04 18.09 С 15 н/о н/о +11.4 +6.6 72 +7 +7 1003.3 1001.5
05 18.09 С 15-21
{21}
н/о н/о +10.0 +9.2 95 +4 +4 1004.0 1002.2
06 18.09 С 11-13
{19}
н/о н/о +10.2 +7.3 82 +6 +6 1005.2 1003.4 +8.2 +12.2
07 18.09 С 12-15
{15}
н/о н/о +10.1 +6.3 77 +5 +5 1006.1 1004.2
08 18.09 С 9-12
{13}
н/о н/о +10.7 +5.9 72 +7 +7 1007.0 1005.2
09 18.09 С 10-12
{14}
н/о н/о +10.9 +4.8 66 +7 +7 1007.8 1006.0
10 18.09 С 9 н/о н/о +10.5 +5.4 71 +7 +7 1008.5 1006.7
11 18.09 С 9-12
{12}
н/о н/о +11.2 +6.4 72 +8 +8 1008.9 1007.1
12 18.09 С 8-12
{12}
н/о н/о +10.9 +5.8 71 +7 +7 1009.7 1007.9
13 18.09 С 9 н/о н/о +10.4 +6.1 75 +6 +6 1010.5 1008.6
14 18.09 С 10-14
{14}
н/о н/о +10.6 +6.6 76 +6 +6 1010.6 1008.8
15 18.09 С 11-16
{16}
н/о н/о +11.4 +6.1 70 +7 +7 1011.0 1009.1
16 18.09 С 12 н/о н/о +11.3 +5.2 66 +7 +7 1011.5 1009.7
17 18.09 С 11 н/о н/о +11.3 +6.6 73 +7 +7 1012.1 1010.3
18 18.09 СЗ 11-14
{14}
н/о н/о +11.5 +5.3 66 +8 +8 1012.4 1010.6 +9.6 +11.6
19 18.09 СЗ 9 н/о н/о +11.2 +6.6 73 +8 +8 1012.7 1010.9
20 18.09 СЗ 8-10
{10}
н/о н/о +11.3 +5.7 68 +8 +8 1012.9 1011.0
21 18.09 СЗ 9-11
{12}
н/о н/о +11.4 +5.7 68 +8 +8 1013.0 1011.2
22 18.09 СЗ 10-12
{12}
н/о н/о +11.1 +7.0 76 +7 +7 1013.0 1011.2
23 18.09 СЗ 9 н/о н/о +11.2 +5.3 67 +8 +8 1013.2 1011.4
00 19.09 СЗ 11-13
{13}
н/о н/о +11.5 +6.3 70 +8 +8 1013.2 1011.4
01 19.09 СЗ 10 н/о н/о +11.3 +6.6 73 +7 +7 1013.5 1011.6
02 19.09 СЗ 10-12
{13}
н/о н/о +10.8 +7.1 78 +7 +7 1013.3 1011.5
03 19.09 -19
{19}
н/о н/о +8.6 +6.0 84 1013.6 1011.7
04 19.09 В 4 н/о н/о +8.4 +6.3 87 +5 +5 1014.0 1012.1
05 19.09 С 7 н/о н/о +9.3 +6.9 85 +5 +5 1014.8 1012.9
06 19.09 С 8-10
{12}
н/о н/о +8.4 +6.2 86 +4 +4 1015.5 1013.7 +7.9 +11.6
07 19.09 С 11-17
{17}
н/о н/о +10.3 +5.0 70 +6 +6 1015.4 1013.6
08 19.09 С 16-18
{19}
н/о н/о +10.6 +5.7 72 +6 +6 1016.2 1014.3
09 19.09 С 15-18
{18}
н/о н/о +10.1 +4.7 69 +5 +5 1017.1 1015.3
10 19.09 С 14 н/о н/о +10.0 +4.4 68 +5 +5 1017.8 1016.0
11 19.09 СЗ 14 н/о н/о +9.9 +4.2 68 +5 +5 1018.3 1016.4
12 19.09 СЗ 15-18
{18}
н/о н/о +9.7 +3.6 66 +4 +4 1018.6 1016.8
13 19.09 СЗ 14 н/о н/о +9.7 +2.7 62 +5 +5 1019.1 1017.2
14 19.09 С 14 н/о н/о +9.8 +2.7 61 +5 +5 1019.3 1017.5
15 19.09 СЗ 14-17
{17}
н/о н/о +10.0 +1.6 56 +5 +5 1019.6 1017.7
16 19.09 С 13 н/о н/о +10.3 +0.9 52 +6 +6 1019.5 1017.7
17 19.09 С 14 н/о н/о +10.4 +0.2 49 +6 +6 1020.0 1018.1
18 19.09 С 13-15
{17}
н/о н/о +10.8 -0.2 47 +7 +7 1020.0 1018.1 +8.3 +11.1
19 19.09 СЗ 11-14
{15}
н/о н/о +11.1 +0.8 49 +7 +7 1020.1 1018.3
20 19.09 С 10-11
{14}
н/о н/о +11.1 -0.3 45 +8 +8 1019.9 1018.1
21 19.09 З 8-10
{12}
н/о н/о +10.6 +5.0 68 +7 +7 1020.2 1018.3
22 19.09 З 9 н/о н/о +10.5 +5.2 70 +7 +7 1020.4 1018.5
23 19.09 З 9-11
{12}
н/о н/о +10.3 +4.7 68 +6 +6 1020.0 1018.2
00 20.09 СЗ 9-11
{12}
н/о н/о +10.7 +3.2 60 +7 +7 1019.8 1018.0
01 20.09 СЗ 8-10
{11}
н/о н/о +10.7 +3.5 61 +7 +7 1019.6 1017.7
02 20.09 СЗ 8 н/о н/о +10.0 +5.2 72 +6 +6 1019.3 1017.5
03 20.09 З 9-11
{11}
н/о н/о +9.3 +5.8 79 +5 +5 1019.0 1017.2
04 20.09 СЗ 8 н/о н/о +9.3 +6.2 81 +5 +5 1019.0 1017.1
05 20.09 З 6-8
{10}
н/о н/о +9.1 +5.3 77 +5 +5 1018.6 1016.7
06 20.09 З 5-7
{8}
н/о н/о +9.2 +5.4 77 +6 +6 1018.6 1016.7 +8.9 +11.4
07 20.09 З 6-7
{7}
н/о н/о +8.8 +5.6 80 +5 +5 1018.7 1016.9
08 20.09 З 5-7
{7}
н/о н/о +8.8 +4.7 75 +5 +5 1018.7 1016.9
09 20.09 З 5-6
{7}
н/о н/о +8.8 +4.8 76 +5 +5 1018.4 1016.5
10 20.09 З 6 н/о н/о +9.0 +2.9 66 +5 +5 1018.0 1016.1
11 20.09 З 6 н/о н/о +9.7 +3.5 65 +6 +6 1017.4 1015.6
12 20.09 З 7-9
{11}
н/о н/о +11.1 +3.0 57 +8 +8 1016.8 1014.9
13 20.09 З 7 н/о н/о +11.1 +1.8 53 +8 +8 1016.1 1014.2
14 20.09 ЮЗ 9 н/о н/о +10.7 +2.4 56 +7 +7 1015.6 1013.8
15 20.09 ЮЗ 8-10
{11}
н/о н/о +10.6 +4.0 64 +7 +7 1014.9 1013.1
16 20.09 ЮЗ 9 н/о н/о +10.2 +6.0 75 +6 +6 1013.9 1012.0
17 20.09 ЮЗ 9 н/о н/о +10.6 +7.4 81 +7 +7 1013.8 1011.9
18 20.09 З 11-13
{14}
н/о н/о +10.7 +8.3 85 +6 +6 1013.0 1011.2 +8.7 +11.5
19 20.09 З 10-12
{14}
н/о н/о +10.6 +8.9 89 +6 +6 1012.8 1011.0
20 20.09 З 8 н/о н/о +11.1 +9.0 87 +7 +7 1012.5 1010.7
21 20.09 З 8-11
{13}
н/о н/о +12.0 +9.6 85 +9 +9 1012.3 1010.5
22 20.09 З 8 н/о н/о +12.2 +9.7 85 +9 +9 1012.1 1010.3
23 20.09 З 8 н/о н/о +12.2 +9.6 84 +9 +9 1012.1 1010.2
00 21.09 З 8-11
{12}
н/о н/о +12.5 +9.9 84 +9 +9 1011.8 1009.9
01 21.09 З 9-12
{13}
н/о н/о +12.5 +10.3 86 +9 +9 1011.6 1009.8
02 21.09 З 11 н/о н/о +12.6 +10.3 86 +9 +9 1011.7 1009.9
03 21.09 З 10-12
{13}
н/о н/о +12.7 +10.4 86 +9 +9 1011.3 1009.4
04 21.09 З 9 н/о н/о +12.9 +10.2 84 +10 +10 1011.1 1009.3
05 21.09 З 12-13
{15}
н/о н/о +13.2 +9.9 80 +10 +10 1010.7 1008.9
06 21.09 З 12-15
{15}
н/о н/о +13.4 +9.1 75 +10 +10 1010.7 1008.9 +10.4 +13.4
07 21.09 З 13 н/о н/о +13.5 +9.1 75 +10 +10 1010.9 1009.1
08 21.09 СЗ 13 н/о н/о +13.6 +8.9 73 +10 +10 1011.4 1009.6
09 21.09 СЗ 14-17
{17}
н/о н/о +13.7 +8.8 72 +10 +10 1011.6 1009.8
10 21.09 СЗ 14 н/о н/о +13.8 +9.0 73 +10 +10 1011.8 1010.0
11 21.09 СЗ 14 н/о н/о +14.3 +9.0 70 +11 +11 1012.2 1010.3
12 21.09 СЗ 12-15
{17}
н/о н/о +14.7 +9.1 69 +12 +12 1012.5 1010.7
13 21.09 СЗ 12-14
{16}
н/о н/о +14.8 +9.1 69 +12 +12 1012.6 1010.8
14 21.09 СЗ 11-12
{14}
н/о н/о +14.9 +9.4 70 +12 +12 1012.7 1010.9
15 21.09 СЗ 9-10
{11}
н/о н/о +15.1 +10.1 72 +13 +13 1012.7 1010.9
16 21.09 СЗ 10 н/о н/о +15.4 +10.1 71 +13 +13 1012.6 1010.8
17 21.09 СЗ 9 н/о н/о +14.8 +10.6 76 +12 +12 1013.1 1011.3
18 21.09 СЗ 8-10
{10}
н/о н/о +14.7 +10.5 76 +13 +13 1013.3 1011.5 +13.3 +15.7
19 21.09 СЗ 7 н/о н/о +14.2 +10.9 81 +12 +12 1013.3 1011.5
20 21.09 СВ 6-6
{8}
н/о н/о +12.9 +11.1 89 +10 +10 1013.5 1011.7
21 21.09 С 6-7
{7}
н/о н/о +13.0 +10.1 83 +11 +11 1013.7 1011.9
22 21.09 С 5 н/о н/о +12.5 +9.4 81 +10 +10 1014.2 1012.3
23 21.09 С 6-7
{7}
н/о н/о +12.2 +9.9 86 +9 +9 1014.1 1012.3
00 22.09 С 8-9
{9}
н/о н/о +12.1 +9.1 82 +9 +9 1014.1 1012.2
01 22.09 С 8 н/о н/о +11.8 +9.6 86 +8 +8 1014.3 1012.4
02 22.09 С 9-10
{12}
н/о н/о +11.3 +7.1 75 +8 +8 1014.7 1012.8
03 22.09 С 8-10
{10}
н/о н/о +11.1 +5.6 69 +8 +8 1014.9 1013.1
04 22.09 С 8 н/о н/о +10.5 +5.9 73 +7 +7 1015.3 1013.5
05 22.09 С 7 н/о н/о +9.9 +6.6 80 +6 +6 1015.8 1014.0
06 22.09 С 9-10
{11}
н/о н/о +9.3 +6.3 82 +5 +5 1016.7 1014.9 +9.3 +14.7
07 22.09 С 8 н/о н/о +9.7 +4.6 71 +6 +6 1017.3 1015.4
08 22.09 СВ 9 н/о н/о +9.7 +3.1 63 +6 +6 1018.1 1016.3
09 22.09 С 6-8
{10}
н/о н/о +9.8 +4.8 71 +6 +6 1018.9 1017.1
10 22.09 В 5 н/о н/о +9.1 +6.0 81 +6 +6 1019.6 1017.7
11 22.09 СВ 4 н/о н/о +9.1 +5.2 77 +6 +6 1020.3 1018.5
12 22.09 СВ 6-7
{8}
н/о н/о +10.0 +3.0 62 +7 +7 1020.5 1018.6
13 22.09 СВ 7 н/о н/о +10.4 +2.5 58 +7 +7 1020.7 1018.9

 

Местоположение метеостанции Хаммарланд (Финляндия): широта 60.30 долгота 19.13 высота над уровнем моря 3 м.

В архиве по умолчанию представлена погода на Хаммарланде за последнюю неделю. Архивные данные за месяц целиком и за предыдущие месяцы, начиная с января 2011 года, Вы можете получить, выбрав интересующий диапазон дат из раскрывающегося списка и нажав кнопку "Ввод!".


*Определитесь, кто Вы:
робот инопланетянин человек

Внимание! Время в таблицах - всемирное. Для получения местного времени необходимо прибавить поправку, которая равна 1 ч.

Смотрите также архив погоды в соседних городах и на ближайших метеорологических станциях:

Погода в Йомала аэропорту (Финляндия) (47 км)
Погода в Орскаре (Швеция) (48 км)
Погода в Йомале (Финляндия) (49 км)
Погода в Лемланд Нихамн (Финляндия) (59 км)
Погода в Сванберге (Швеция) (59 км)
Погода в Содерарме (Швеция) (63 км)
Погода в Логнес Харбор (Финляндия) (68 км)
Погода в Фильме (Швеция) (68 км)
Погода в Кумлинге (Финляндия) (89 км)
Погода в Уппсале (Швеция) (96 км)

Пояснения к столбцам:

Ветер - указаны скорость ветра в м/с - средняя за 10 мин, порывы в срок и между сроками (в фигурных скобках) и направление, откуда дует ветер: С - северный, СВ - северо-восточный, В - восточный, ЮВ - юго-восточный, Ю - южный, ЮЗ - юго-западный, З - западный, СЗ - северо-западный.
Видимость - горизонтальная дальность видимости в метрах или километрах. При видимости от 1 до 10 км при отсутствии осадков обычно наблюдается дымка, при ухудшении видимости до 1 км и менее - туман. В сухую погоду видимость может ухудшаться дымом, пылью или мглою.
Явления - указаны атмосферные явления, наблюдавшиеся в срок или в последний час перед сроком; фигурными скобками обозначены явления, наблюдавшиеся между сроками (за 1-3 часа до срока); квадратными скобками обозначены град или гололедные отложения с указанием их диаметра в мм.
Облачность - указаны через наклонную черту общая и нижняя облачность в баллах и высота нижней границы облаков в метрах; квадратными скобками обозначены формы облаков: Ci - перистые, Cs - перисто-слоистые, Cc - перисто-кучевые, Ac - высококучевые, As - высокослоистые, Sc - слоисто-кучевые, Ns - слоисто-дождевые, Cu - кучевые, Cb - кучево-дождевые. Подробнее классификацию облаков см. в Атласе облаков (PDF).
T - Температура воздуха - температура, измеренная на высоте 2 м над землей.
Td - Температура точки росы - температура, при понижении до которой содержащийся в воздухе водяной пар достигнет насыщения.
f - Относительная влажность воздуха - влажноcть воздуха, измеренная на высоте 2 м над землей.
Te - Эффективная температура - температура, которую ощущает одетый по сезону человек в тени. Характеристика душности погоды. При расчете учитывается влияние влажности воздуха и скорости ветра на теплоощущения человека.
Tes - Эффективная температура на солнце - температура, которую ощущает человек, с поправкой на солнечный нагрев. Характеристика знойности погоды. Зависит от высоты солнца над горизонтом, облачности и скорости ветра. Ночью, в пасмурную погоду, а также при ветре 12 м/с и более поправка равна нулю.
P - Атмосферное давление - приведенное к уровню моря атмосферное давление.
Po - Атмосферное давление - измеренное на уровне метеостанции атмосферное давление.
Tmin - Минимальная температура - минимум температуры воздуха на высоте 2 м над землей.
Tmax - Максимальная температура - максимум температуры воздуха на высоте 2 м над землей.
R - Количество осадков - Количество выпавших осадков за период времени, мм. При наведении курсора мыши на число - период времени, за который выпало указанное количество осадков.
R24 - Количество осадков - Количество выпавших осадков за 24 часа, мм.
S - Снежный покров - Высота снежного покрова, см. При наведении курсора мыши на число - состояние снежного покрова и степень покрытия местности в баллах.